When you browse on this site, cookies collect data to enhance your experience and personalize the content and advertising you see.
Visit our Privacy Policy to learn more. By continuing to use the site, you agree to this use of cookies and data.
  • En España
  • Lista de países
  • Para 7 días
  • Temperatura del agua
  • El tiempo en el mapa
  • Informadores
  • user-avatar
    Iniciar sesión

    Tiempo cada hora Nuwejba

    Hoy, 20 Octubre, Domingo

    Tiempo Temperatura Precipitaciones Viento Presión Humedad
    00:00 +20°C° 0 mm 2 mps 694 mmHg 57%
    01:00 +20°C° 0 mm 2 mps 693 mmHg 55%
    02:00 +19°C° 0 mm 2 mps 693 mmHg 53%
    03:00 +19°C° 0 mm 2 mps 693 mmHg 52%
    04:00 +19°C° 0 mm 2 mps 693 mmHg 50%
    05:00 +18°C° 0 mm 2 mps 693 mmHg 49%
    06:00 +20°C° 0 mm 2 mps 694 mmHg 43%
    07:00 +23°C° 0 mm 2 mps 694 mmHg 38%
    08:00 +24°C° 0 mm 3 mps 694 mmHg 32%
    09:00 +26°C° 0 mm 4 mps 695 mmHg 28%
    10:00 +28°C° 0 mm 5 mps 695 mmHg 24%
    11:00 +29°C° 0 mm 6 mps 695 mmHg 21%
    12:00 +30°C° 0 mm 6 mps 695 mmHg 20%
    13:00 +30°C° 0 mm 6 mps 694 mmHg 19%
    14:00 +30°C° 0 mm 6 mps 694 mmHg 18%
    15:00 +29°C° 0 mm 6 mps 694 mmHg 21%
    16:00 +28°C° 0 mm 6 mps 694 mmHg 24%
    17:00 +27°C° 0 mm 6 mps 693 mmHg 27%
    18:00 +26°C° 0 mm 6 mps 694 mmHg 31%
    19:00 +25°C° 0 mm 5 mps 694 mmHg 36%
    20:00 +22°C° 0 mm 4 mps 694 mmHg 40%
    21:00 +22°C° 0 mm 3 mps 694 mmHg 43%
    22:00 +21°C° 0 mm 3 mps 694 mmHg 46%
    23:00 +20°C° 0 mm 2 mps 693 mmHg 49%

    Mañana, 21 Octubre, Lunes

    Tiempo Temperatura Precipitaciones Viento Presión Humedad
    00:00 +20°C° 0 mm 2 mps 693 mmHg 50%
    01:00 +19°C° 0 mm 2 mps 693 mmHg 50%
    02:00 +19°C° 0 mm 2 mps 692 mmHg 51%
    03:00 +20°C° 0 mm 1 mps 692 mmHg 51%
    04:00 +20°C° 0 mm 1 mps 692 mmHg 50%
    05:00 +19°C° 0 mm 1 mps 692 mmHg 50%
    06:00 +21°C° 0 mm 1 mps 692 mmHg 45%
    07:00 +23°C° 0 mm 1 mps 693 mmHg 40%
    08:00 +24°C° 0 mm 1 mps 693 mmHg 35%
    09:00 +26°C° 0 mm 2 mps 693 mmHg 32%
    10:00 +27°C° 0 mm 2 mps 693 mmHg 30%
    11:00 +28°C° 0 mm 3 mps 693 mmHg 27%
    12:00 +29°C° 0 mm 3 mps 693 mmHg 26%
    13:00 +30°C° 0 mm 3 mps 692 mmHg 25%
    14:00 +30°C° 0 mm 4 mps 692 mmHg 24%
    15:00 +29°C° 0 mm 4 mps 691 mmHg 26%
    16:00 +28°C° 0 mm 4 mps 691 mmHg 28%
    17:00 +27°C° 0 mm 4 mps 691 mmHg 31%
    18:00 +26°C° 0 mm 3 mps 690 mmHg 34%
    19:00 +25°C° 0 mm 2 mps 690 mmHg 38%
    20:00 +23°C° 0 mm 1 mps 690 mmHg 41%
    21:00 +23°C° 0 mm 1 mps 690 mmHg 42%
    22:00 +22°C° 0 mm 1 mps 690 mmHg 43%
    23:00 +22°C° 0 mm 1 mps 690 mmHg 44%

    Pasado mañana, 22 Octubre, Martes

    Tiempo Temperatura Precipitaciones Viento Presión Humedad
    00:00 +22°C° 0 mm 1 mps 689 mmHg 44%
    01:00 +21°C° 0 mm 1 mps 689 mmHg 45%
    02:00 +21°C° 0 mm 1 mps 688 mmHg 46%
    03:00 +21°C° 0 mm 1 mps 688 mmHg 46%
    04:00 +21°C° 0 mm 1 mps 688 mmHg 46%
    05:00 +20°C° 0 mm 1 mps 688 mmHg 46%
    06:00 +22°C° 0 mm 1 mps 689 mmHg 41%
    07:00 +24°C° 0 mm 2 mps 689 mmHg 37%
    08:00 +26°C° 0 mm 2 mps 690 mmHg 32%
    09:00 +27°C° 0 mm 3 mps 690 mmHg 28%
    10:00 +28°C° 0 mm 4 mps 690 mmHg 23%
    11:00 +30°C° 0 mm 5 mps 690 mmHg 18%
    12:00 +30°C° 0 mm 5 mps 690 mmHg 19%
    13:00 +30°C° 0 mm 5 mps 690 mmHg 19%
    14:00 +30°C° 0 mm 6 mps 689 mmHg 19%
    15:00 +28°C° 0 mm 6 mps 689 mmHg 30%
    16:00 +26°C° 0 mm 7 mps 689 mmHg 41%
    17:00 +23°C° 0 mm 7 mps 689 mmHg 52%
    18:00 +21°C° 0 mm 6 mps 689 mmHg 60%
    19:00 +20°C° 0 mm 5 mps 689 mmHg 68%
    20:00 +19°C° 0 mm 4 mps 690 mmHg 76%
    21:00 +18°C° 0 mm 3 mps 690 mmHg 77%
    22:00 +18°C° 0 mm 2 mps 690 mmHg 77%
    23:00 +18°C° 0 mm 2 mps 690 mmHg 78%

    23 Octubre, Miércoles

    Tiempo Temperatura Precipitaciones Viento Presión Humedad
    00:00 +17°C° 0 mm 2 mps 689 mmHg 80%
    01:00 +18°C° 0 mm 1 mps 689 mmHg 81%
    02:00 +16°C° 0 mm 1 mps 689 mmHg 83%
    03:00 +16°C° 0 mm 1 mps 689 mmHg 84%
    04:00 +15°C° 0 mm 1 mps 689 mmHg 86%
    05:00 +15°C° 0 mm 1 mps 689 mmHg 87%
    06:00 +16°C° 0 mm 1 mps 689 mmHg 80%
    07:00 +18°C° 0 mm 1 mps 690 mmHg 73%
    08:00 +19°C° 0 mm 1 mps 690 mmHg 67%
    09:00 +21°C° 0 mm 1 mps 690 mmHg 58%
    10:00 +21°C° 0 mm 2 mps 691 mmHg 49%
    11:00 +24°C° 0 mm 2 mps 691 mmHg 41%
    12:00 +25°C° 0 mm 2 mps 690 mmHg 37%
    13:00 +25°C° 0 mm 2 mps 690 mmHg 33%
    14:00 +26°C° 0 mm 3 mps 690 mmHg 29%
    15:00 +25°C° 0 mm 3 mps 690 mmHg 31%
    16:00 +24°C° 0 mm 3 mps 690 mmHg 34%
    17:00 +24°C° 0 mm 3 mps 690 mmHg 37%
    18:00 +22°C° 0 mm 3 mps 690 mmHg 43%
    19:00 +21°C° 0 mm 3 mps 690 mmHg 48%
    20:00 +20°C° 0 mm 3 mps 690 mmHg 54%
    21:00 +19°C° 0 mm 3 mps 690 mmHg 58%
    22:00 +18°C° 0 mm 2 mps 690 mmHg 63%
    23:00 +19°C° 0 mm 1 mps 690 mmHg 67%

    24 Octubre, Jueves

    Tiempo Temperatura Precipitaciones Viento Presión Humedad
    00:00 +18°C° 0 mm 1 mps 690 mmHg 69%
    01:00 +18°C° 0 mm 1 mps 690 mmHg 72%
    02:00 +16°C° 0 mm 1 mps 690 mmHg 74%
    03:00 +16°C° 0 mm 1 mps 689 mmHg 74%
    04:00 +16°C° 0 mm 1 mps 689 mmHg 74%
    05:00 +15°C° 0 mm 1 mps 689 mmHg 74%
    06:00 +18°C° 0 mm 1 mps 690 mmHg 66%
    07:00 +19°C° 0 mm 1 mps 690 mmHg 59%
    08:00 +20°C° 0 mm 1 mps 691 mmHg 51%
    09:00 +22°C° 0 mm 1 mps 691 mmHg 44%
    10:00 +23°C° 0 mm 2 mps 691 mmHg 38%
    11:00 +24°C° 0 mm 2 mps 691 mmHg 31%
    12:00 +25°C° 0 mm 2 mps 691 mmHg 29%
    13:00 +25°C° 0 mm 3 mps 691 mmHg 26%
    14:00 +26°C° 0 mm 3 mps 690 mmHg 24%
    15:00 +25°C° 0 mm 3 mps 690 mmHg 26%
    16:00 +24°C° 0 mm 3 mps 690 mmHg 28%
    17:00 +22°C° 0 mm 3 mps 690 mmHg 29%
    18:00 +21°C° 0 mm 2 mps 690 mmHg 32%
    19:00 +20°C° 0 mm 2 mps 690 mmHg 35%
    20:00 +20°C° 0 mm 2 mps 690 mmHg 38%
    21:00 +19°C° 0 mm 2 mps 690 mmHg 40%
    22:00 +18°C° 0 mm 2 mps 690 mmHg 43%
    23:00 +19°C° 0 mm 1 mps 690 mmHg 45%

    25 Octubre, Viernes

    Tiempo Temperatura Precipitaciones Viento Presión Humedad
    00:00 +18°C° 0 mm 1 mps 690 mmHg 48%
    01:00 +18°C° 0 mm 1 mps 690 mmHg 50%
    02:00 +16°C° 0 mm 1 mps 689 mmHg 53%
    03:00 +16°C° 0 mm 1 mps 689 mmHg 54%
    04:00 +15°C° 0 mm 1 mps 689 mmHg 56%
    05:00 +15°C° 0 mm 1 mps 689 mmHg 58%
    06:00 +16°C° 0 mm 0 mps 690 mmHg 52%
    07:00 +17°C° 0 mm 0 mps 690 mmHg 46%
    08:00 +19°C° 0 mm 0 mps 691 mmHg 40%
    09:00 +22°C° 0 mm 1 mps 691 mmHg 36%
    10:00 +23°C° 0 mm 1 mps 691 mmHg 31%
    11:00 +25°C° 0 mm 1 mps 691 mmHg 27%
    12:00 +25°C° 0 mm 2 mps 691 mmHg 26%
    13:00 +26°C° 0 mm 3 mps 691 mmHg 25%
    14:00 +26°C° 0 mm 3 mps 690 mmHg 24%
    15:00 +25°C° 0 mm 3 mps 690 mmHg 27%
    16:00 +24°C° 0 mm 3 mps 690 mmHg 30%
    17:00 +23°C° 0 mm 2 mps 690 mmHg 33%
    18:00 +21°C° 0 mm 2 mps 690 mmHg 35%
    19:00 +20°C° 0 mm 3 mps 690 mmHg 38%
    20:00 +20°C° 0 mm 3 mps 690 mmHg 40%
    21:00 +19°C° 0 mm 2 mps 690 mmHg 45%
    22:00 +18°C° 0 mm 2 mps 690 mmHg 50%
    23:00 +17°C° 0 mm 2 mps 690 mmHg 55%
    Mostrar más